KASEKTEX

Guest
Details From KASE - Aspen Pitkin Co Sardy Fld
To KTEX - Telluride Rgnl
Flight Number -
Tags generated
Created
Modified
Stats Distance 91 nm / 168 km
Max Altitude 8,100 ft / 2,469 m
Waypoints 3
Social Downloads 2
Likes 0
Share VATSIM

Download

Looking for another format? Having issues loading an existing format? Contact us
Advertisement - Login to hide

Notes

Basic altitude profile: - Ascent Rate: 2500ft/min - Ascent Speed: 250kts - Cruise Altitude: 35000ft - Cruise Speed: 420kts - Descent Rate: 1500ft/min - Descent Speed: 250kts Options: - Use NATs: yes - Use PACOTS: yes - Use low airways: yes - Use high airways: no

Route

KASE MEYRS KTEX

ID Type Via Altitude Latitude Longitude Leg Dist Tot Dist Heading (true) Name
O KASE APT - 0 ft / 0 m 39.22316˚ -106.86885˚ - 0 nm - Aspen Pitkin Co Sardy Fld
MEYRS FIX - 8,100 ft / 2,469 m 38.47966˚ -107.46276˚ 52 nm 52 nm 212° / 212° -
O KTEX APT - 0 ft / 0 m 37.95381˚ -107.90874˚ 37 nm 90 nm 214° / 214° Telluride Rgnl

Altitude Profile

Advertisement - Login to hide

KASE

Details ICAO KASE (ASE)
Name Aspen Pitkin Co Sardy Fld
Region United States
Timezone America/Denver (UTC-7.0)
Stats Elevation 7,820 ft / 2,384 m (AMSL)
Location 39.223164° -106.868847°
Runways 1
Magnetic Variation 9.096° E

METAR

KASE 151153Z AUTO 20007KT 10SM CLR M14/M18 A3032 RMK AO2 SLP299 T11391183 11089 21144 58002

Decode

TAF

TAF KASE 151120Z 1512/1612 22006KT P6SM FEW250 FM151900 34004KT P6SM SCT250 FM160100 20008KT P6SM FEW140 FEW250

Decode

Departure Runways

ID Width Length Bearing (true) Bearing (mag) Surface Threshold Offset Overrun Length
15 100 ft / 30 m 7,011 ft / 2,137 m 159.71° 150.61° Asphalt 0 ft / 0 m 499 ft / 152 m
33 100 ft / 30 m 7,011 ft / 2,137 m 339.71° 330.61° Asphalt 0 ft / 0 m 0 ft / 0 m

KTEX

Details ICAO KTEX (TEX)
Name Telluride Rgnl
Region United States
Timezone America/Denver (UTC-7.0)
Stats Elevation 9,078 ft / 2,767 m (AMSL)
Location 37.953812° -107.908742°
Runways 1
Magnetic Variation 9.420° E

METAR

KTEX 151235Z AUTO 11004KT 10SM CLR M06/M24 A3033 RMK AO2 T10631237

Decode

TAF

TAF KTEX 151120Z 1512/1612 12004KT P6SM FEW250 FM151800 26004KT P6SM FEW250 FM160200 13007KT P6SM FEW140 FEW250

Decode

Destination Runways

ID Width Length Bearing (true) Bearing (mag) Surface Threshold Offset Overrun Length
09 98 ft / 30 m 7,095 ft / 2,163 m 104.96° 95.54° Asphalt 200 ft / 61 m 400 ft / 122 m
27 98 ft / 30 m 7,095 ft / 2,163 m 284.98° 275.56° Asphalt 200 ft / 61 m 400 ft / 122 m

Approach Navaids

Runway Type Ident Frequency Range Bearing (true) Bearing (mag) Slope Elevation
09 Localiser ITEX 109.30 MHz 18 nm / 33 km 102.00° 92.58° - 9,078 ft / 2,767 m (AMSL)
09 DME ITEX 109.30 MHz 18 nm / 33 km - - - 9,078 ft / 2,767 m (AMSL)

Popular Alternatives